Waarnemingen

Advertentie
Mijn weer
Cabo Busto, Spanje (8010): temperatuur & dauwpunt: 17.05.2018 01:00:00 - 23.05.2018 01:00:00 (CEST)Cabo Busto, Spanje (8010): windsnelheid & windstoten: 17.05.2018 01:00:00 - 23.05.2018 01:00:00 (CEST)Cabo Busto, Spanje (8010): windrichting: 17.05.2018 01:00:00 - 23.05.2018 01:00:00 (CEST)Cabo Busto, Spanje (8010): luchtdruk: 17.05.2018 01:00:00 - 23.05.2018 01:00:00 (CEST)Cabo Busto, Spanje (8010): zicht: 17.05.2018 01:00:00 - 23.05.2018 01:00:00 (CEST)Cabo Busto, Spanje (8010): Zonneschijnduur: 17.05.2018 01:00:00 - 23.05.2018 01:00:00 (CEST)Cabo Busto, Spanje (8010): neerslag: 17.05.2018 01:00:00 - 23.05.2018 01:00:00 (CEST)
Datum & Tijd tt [°C] td [°C] ff [km/u] ff [kn] fx [km/u] fx [kn] dd ppp [hPa] vv [km] sd [min] rr [mm]
23.05.2018 01:00:00 - - - - - - - - - - -
23.05.2018 00:00:00 - - - - - - - - - - -
22.05.2018 23:00:00 - - - - - - - - - - -
22.05.2018 22:00:00 - - - - - - - - - - -
22.05.2018 21:00:00 - - - - - - - - - - -
22.05.2018 20:00:00 16,6 14,0 11 6 34 18 N 1015,3 8 34 -
22.05.2018 19:00:00 17,6 14,5 8 4 29 16 N 1015,2 1,1 54 0,0
22.05.2018 18:00:00 17,9 14,4 18 10 34 19 NNO 1014,8 11 60 0,0
22.05.2018 17:00:00 18,3 14,6 16 9 29 15 NO 1015,3 10 60 0,0
22.05.2018 16:00:00 18,6 14,7 9 5 21 11 NNO 1015,3 10 60 0,0
22.05.2018 15:00:00 - - - - - - - - - - -
22.05.2018 14:00:00 - - - - - - - - - - -
22.05.2018 13:00:00 - - - - - - - - - - -
22.05.2018 12:00:00 - - - - - - - - - - -
22.05.2018 11:00:00 14,7 12,2 5 3 11 6 W - - 52 0,2
22.05.2018 10:00:00 15,6 12,5 8 4 21 11 W 1015,0 4,1 60 0,0
22.05.2018 09:00:00 - - - - - - - - - - -
22.05.2018 08:00:00 - - - - - - - - - - -
22.05.2018 07:00:00 - - - - - - - - - - -
22.05.2018 06:00:00 - - - - - - - - - - -
22.05.2018 05:00:00 - - - - - - - - - - -
22.05.2018 04:00:00 11,6 9,6 16 9 21 11 OZO 1013,1 18 0 0,0
22.05.2018 03:00:00 11,9 9,9 13 7 19 11 OZO 1013,5 16 0 0,0
22.05.2018 02:00:00 - - - - - - - - - - -
22.05.2018 01:00:00 - - - - - - - - - - -
22.05.2018 00:00:00 - - - - - - - - - - -
21.05.2018 23:00:00 - - - - - - - - - - -
21.05.2018 22:00:00 - - - - - - - - - - -
21.05.2018 21:00:00 16,7 13,7 4 2 10 5 W 1012,2 10 49 0,0
21.05.2018 20:00:00 16,9 13,5 4 2 15 8 NNO 1011,6 10 60 -
21.05.2018 19:00:00 17,5 13,7 9 5 17 9 NNO 1011,3 10 60 0,0
21.05.2018 18:00:00 17,6 13,9 7 4 16 9 NNO 1011,1 15 60 0,0
21.05.2018 17:00:00 17,8 13,8 7 4 21 11 NO 1011,0 13 60 0,0
21.05.2018 16:00:00 17,7 13,7 14 8 21 12 NNO 1010,9 17 60 0,0
21.05.2018 15:00:00 17,9 13,9 10 6 20 11 NNO 1011,2 12 60 0,0
21.05.2018 14:00:00 17,9 14,0 9 5 24 13 NNO 1011,4 15 60 -
21.05.2018 13:00:00 - - - - - - - - - - -
21.05.2018 12:00:00 - - - - - - - - - - -
21.05.2018 11:00:00 - - - - - - - - - - -
21.05.2018 10:00:00 15,9 12,1 4 2 7 4 WZW 1011,1 7 60 0,0
21.05.2018 09:00:00 13,5 10,5 5 3 11 6 ZZO 1010,7 15 43 0,0
21.05.2018 08:00:00 11,9 9,4 11 6 16 9 ZZO 1010,7 20 13 -
21.05.2018 07:00:00 10,9 8,3 12 6 15 8 ZO 1010,5 20 0 0,0
21.05.2018 06:00:00 12,1 8,9 10 5 17 9 OZO 1010,2 20 0 0,0
21.05.2018 05:00:00 13,3 9,9 10 5 18 10 O 1010,4 19 0 0,0
21.05.2018 04:00:00 13,5 10,2 10 6 16 9 O 1010,9 20 0 0,0
21.05.2018 03:00:00 - - - - - - - - - - -
21.05.2018 02:00:00 - - - - - - - - - - -
21.05.2018 01:00:00 - - - - - - - - - - -
21.05.2018 00:00:00 - - - - - - - - - - -
20.05.2018 23:00:00 - - - - - - - - - - -
20.05.2018 22:00:00 14,9 13,1 23 12 39 21 NO 1012,9 6 29 0,0
20.05.2018 21:00:00 15,5 13,4 22 12 39 21 NO 1012,8 5 60 0,0
20.05.2018 20:00:00 16,2 13,4 22 12 39 21 NNO 1012,8 8 60 -
20.05.2018 19:00:00 16,4 13,5 22 12 37 20 NO 1013,0 10 60 0,0
20.05.2018 18:00:00 - - - - - - - - - - -
20.05.2018 17:00:00 17,1 13,7 16 8 42 23 N 1013,7 10 60 0,0
20.05.2018 16:00:00 17,0 13,4 15 8 44 24 N 1014,2 11 60 0,0
20.05.2018 15:00:00 - - - - - - - - - - -
20.05.2018 14:00:00 - - - - - - - - - - -
20.05.2018 13:00:00 16,4 12,7 23 12 40 21 NO 1016,0 11 60 0,0
20.05.2018 12:00:00 - - - - - - - - - - -
20.05.2018 11:00:00 - - - - - - - - - - -
20.05.2018 10:00:00 15,4 10,5 13 7 21 12 ONO 1017,0 12 60 0,0
20.05.2018 09:00:00 13,6 10,4 9 5 16 9 OZO 1017,3 17 60 0,0
20.05.2018 08:00:00 10,9 8,7 13 7 20 11 ZO 1017,2 15 12 -
20.05.2018 07:00:00 10,9 8,3 13 7 21 11 ZO 1017,0 15 0 0,0
20.05.2018 06:00:00 10,2 7,8 14 8 20 11 OZO 1017,0 20 0 0,0
20.05.2018 05:00:00 - - - - - - - - - - -
20.05.2018 04:00:00 - - - - - - - - - - -
20.05.2018 03:00:00 - - - - - - - - - - -
20.05.2018 02:00:00 - - - - - - - - - - -
20.05.2018 01:00:00 - - - - - - - - - - -
20.05.2018 00:00:00 - - - - - - - - - - -
19.05.2018 23:00:00 - - - - - - - - - - -
19.05.2018 22:00:00 - - - - - - - - - - -
19.05.2018 21:00:00 - - - - - - - - - - -
19.05.2018 20:00:00 - - - - - - - - - - -
19.05.2018 19:00:00 - - - - - - - - - - -
19.05.2018 18:00:00 16,5 13,6 22 12 41 22 NNO 1018,4 15 60 0,0
19.05.2018 17:00:00 16,5 13,5 27 14 40 22 NNO 1018,4 11 60 0,0
19.05.2018 16:00:00 17,2 13,8 14 7 38 20 NNO 1018,8 12 60 0,0
19.05.2018 15:00:00 16,7 13,5 22 12 36 19 NO 1019,1 14 60 0,0
19.05.2018 14:00:00 17,1 13,3 15 8 34 18 NNO 1019,3 12 60 -
19.05.2018 13:00:00 - - - - - - - - - - -
19.05.2018 12:00:00 - - - - - - - - - - -
19.05.2018 11:00:00 - - - - - - - - - - -
19.05.2018 10:00:00 16,2 12,3 10 6 22 12 ONO 1019,7 13 60 0,0
19.05.2018 09:00:00 15,1 12,0 9 5 19 10 ONO 1019,3 16 60 0,0
19.05.2018 08:00:00 13,3 11,3 11 6 18 10 O 1019,0 11 10 -
19.05.2018 07:00:00 13,7 11,8 13 7 27 15 O 1018,6 7 0 0,0
19.05.2018 06:00:00 14,2 12,1 16 8 23 12 NO 1018,5 6 0 0,0
19.05.2018 05:00:00 13,9 11,8 10 5 17 9 O 1018,2 8 0 0,0
19.05.2018 04:00:00 13,9 11,8 10 5 18 10 O 1018,5 8 0 0,0
19.05.2018 03:00:00 14,1 12,1 11 6 26 14 O 1018,9 7 0 0,0
19.05.2018 02:00:00 14,4 12,6 14 8 32 18 ONO 1019,2 6 0 -
19.05.2018 01:00:00 14,5 12,5 18 10 39 21 NNO 1019,2 6 0 0,0
19.05.2018 00:00:00 14,7 12,5 22 12 38 20 NNO 1019,3 7 0 0,0
18.05.2018 23:00:00 14,7 12,7 20 11 42 23 NNO 1019,0 9 0 0,0
18.05.2018 22:00:00 14,8 12,6 25 14 40 21 NNO 1018,6 9 8 0,0
18.05.2018 21:00:00 15,2 12,7 24 13 38 21 NNO 1018,1 11 60 0,0
18.05.2018 20:00:00 15,8 13,3 21 11 39 21 NNO 1018,2 8 60 -
18.05.2018 19:00:00 16,3 13,4 20 11 42 23 NNO 1018,2 9 60 0,0
18.05.2018 18:00:00 16,3 13,4 23 12 42 23 NNO 1018,0 10 60 0,0
18.05.2018 17:00:00 16,6 13,6 22 12 43 23 NNO 1017,9 8 60 0,0
18.05.2018 16:00:00 16,7 13,7 21 12 37 20 NNO 1018,1 7 60 0,0
18.05.2018 15:00:00 17,1 13,7 15 8 36 20 N 1018,4 8 60 0,0
18.05.2018 14:00:00 17,0 13,4 16 9 32 17 NNO 1019,0 8 60 -
18.05.2018 13:00:00 16,7 13,1 14 8 25 14 NO 1019,3 9 60 0,0
18.05.2018 12:00:00 16,7 12,8 10 5 23 13 N 1019,3 9 60 0,0
18.05.2018 11:00:00 15,9 12,8 5 3 10 5 NO 1019,5 5 41 0,0
18.05.2018 10:00:00 - - - - - - - - - - -
18.05.2018 09:00:00 13,4 11,2 4 2 13 7 O 1019,5 10 0 0,0
18.05.2018 08:00:00 12,4 10,4 8 5 15 8 ZO 1019,2 7 0 -
18.05.2018 07:00:00 12,4 10,4 8 4 16 9 OZO 1018,9 8 0 0,0
18.05.2018 06:00:00 12,1 10,3 9 5 18 10 ZO 1018,7 8 0 0,0
18.05.2018 05:00:00 12,4 10,6 7 4 11 6 O 1018,7 7 0 0,0
18.05.2018 04:00:00 11,8 10,0 5 3 10 5 O 1018,7 6 0 0,0
18.05.2018 03:00:00 11,3 9,0 4 2 11 6 ZO 1018,6 6 0 0,0
18.05.2018 02:00:00 13,0 10,8 8 4 21 12 ONO 1018,7 9 0 -
18.05.2018 01:00:00 13,3 11,0 8 4 19 10 NO 1018,7 10 0 0,0
18.05.2018 00:00:00 13,5 11,2 12 6 22 12 ONO 1018,6 13 0 0,0
17.05.2018 23:00:00 - - - - - - - - - - -
17.05.2018 22:00:00 13,8 11,1 14 7 28 15 NO 1018,2 8 7 0,0
17.05.2018 21:00:00 14,3 11,2 13 7 30 16 NO 1018,1 9 60 0,0
17.05.2018 20:00:00 15,6 11,6 8 5 26 14 N 1018,1 11 60 -
17.05.2018 19:00:00 15,4 11,6 12 7 24 13 NO 1018,1 10 60 0,0
17.05.2018 18:00:00 15,7 11,7 14 8 26 14 NNO 1018,1 10 60 0,0
17.05.2018 17:00:00 16,4 11,8 12 7 24 13 NNO 1018,4 12 60 0,0
17.05.2018 16:00:00 16,9 12,0 9 5 27 14 NNO 1018,4 11 60 0,0
17.05.2018 15:00:00 16,3 11,7 11 6 28 15 N 1018,7 16 60 0,0
17.05.2018 14:00:00 16,5 12,0 8 4 30 16 NNW 1018,8 15 60 -
17.05.2018 13:00:00 16,3 11,9 10 6 32 17 N 1018,6 18 60 0,0
17.05.2018 12:00:00 16,1 11,4 9 5 28 15 NNW 1018,6 19 60 0,0
17.05.2018 11:00:00 15,6 11,0 11 6 22 12 NNO 1018,4 10 60 0,0
17.05.2018 10:00:00 14,5 10,3 11 6 19 10 ONO 1018,5 20 60 0,0
17.05.2018 09:00:00 13,1 10,6 6 3 13 7 O 1018,6 16 57 0,0
17.05.2018 08:00:00 10,9 9,0 9 5 17 9 O 1018,6 17 7 -
17.05.2018 07:00:00 9,7 7,8 11 6 14 8 OZO 1018,4 13 0 0,0
17.05.2018 06:00:00 10,4 8,1 10 5 18 10 OZO 1018,6 16 0 0,0
17.05.2018 05:00:00 12,1 9,7 11 6 18 10 O 1018,6 20 0 0,0
17.05.2018 04:00:00 12,2 9,8 12 6 21 12 ONO 1018,9 18 0 0,0
17.05.2018 03:00:00 11,8 9,2 10 6 23 12 O 1019,0 17 0 0,0
17.05.2018 02:00:00 12,7 10,0 15 8 28 15 ONO 1019,5 18 0 -
17.05.2018 01:00:00 - - - - - - - - - - -

tt = temperatuur
td = dauwpunt
ff = windsnelheid
fx = windstoten
dd = windrichting
ppp = luchtdruk
vv = zicht
sd = Zonneschijnduur
rr = neerslag

Weerstations in de omgeving